Regional Weather Roundup
Issued by NWS

Home | Current Version | Previous Version | Text Only | Print | Product List | Glossary Off
Versions: 1 2 3 4 5 6 7 8 9 10 11 12 13 14 15 16 17 18 19 20 21 22 23 24 25 26 27 28 29 30 31 32 33 34 35 36 37 38 39 40 41 42 43 44 45 46 47 48 49 50

000
ASUS43 KBIS 230510
RWRND

NORTH DAKOTA REGIONAL WEATHER ROUNDUP
NATIONAL WEATHER SERVICE BISMARCK ND
1200 AM CDT MON OCT 23 2017

NOTE: "FAIR" INDICATES FEW OR NO CLOUDS BELOW 12,000 FEET WITH NO
SIGNIFICANT WEATHER AND/OR OBSTRUCTIONS TO VISIBILITY.


NDZ001>003-009>011-017-230600-
NORTHWEST NORTH DAKOTA

CITY           SKY/WX    TMP DP  RH WIND       PRES   REMARKS
WILLISTON      PTCLDY    50  37  62 MISG      29.77R
MINOT          CLOUDY    53  34  48 W23G33    29.65R
MINOT AFB      CLOUDY    51  34  52 NW18G28   29.64R
$$

NDZ018>021-031>035-040>046-230600-
SOUTHWEST NORTH DAKOTA

CITY           SKY/WX    TMP DP  RH WIND       PRES   REMARKS
BISMARCK       CLEAR     56  41  57 W18G26    29.74R
DICKINSON      MOCLDY    51  32  48 W20G29    29.81R
GARRISON         N/A     49  43  80 W18       29.70R
HETTINGER ARPT CLEAR     44  38  79 W14       29.89R
$$

NDZ004>008-012>016-024-026-027-054-230600-
NORTHEAST NORTH DAKOTA

CITY           SKY/WX    TMP DP  RH WIND       PRES   REMARKS
GRAND FORKS    CLOUDY    54  33  45 S13       29.57F
GRND FRKS AFB  MOCLDY    55  34  44 SW14G21   29.56F
DEVILS LAKE    CLOUDY    54  42  64 W18       29.58R
$$

NDZ022-023-025-028>030-036>039-047>053-230600-
SOUTHEAST NORTH DAKOTA

CITY           SKY/WX    TMP DP  RH WIND       PRES   REMARKS
FARGO          LGT RAIN  57  35  43 S13       29.64F
JAMESTOWN      CLOUDY    56  42  59 W15       29.65R
$$





USA.gov is the U.S. government's official web portal to all federal, state and local government web resources and services.